Temperature
7 9 8 8 8 9 9 9 9 9 9 9 9 9 10 9 9 9 9 8 8 8 8 8 8 8 9 9 9 10 10 10 10 10 10 10 10 10 10 10 10 11 11 11
8 8 7 8 7 8 8 8 9 9 9 8 9 9 9 9 9 8 8 8 8 7 7 7 8 8 8 8 9 9 9 9 10 10 10 10 10 10 10 10 10 10 10 10
8 7 7 7 7 7 8 8 8 8 8 8 8 10 10 9 8 8 7 7 7 7 7 7 7 7 7 8 8 9 9 9 9 9 9 9 9 9 9 9 10 9 10 9
7 6 6 7 7 7 8 7 7 7 8 9 8 10 10 10 9 8 7 7 7 6 6 6 6 7 7 7 8 8 8 8 9 9 9 9 9 9 9 9 9 9 9 9
7 6 6 7 7 7 7 7 7 7 7 7 8 8 10 9 9 9 8 7 6 6 6 6 6 6 7 7 7 7 8 8 8 8 8 8 8 8 8 8 8 9 9 9
6 5 5 6 6 6 6 6 7 7 7 7 8 8 10 10 9 9 8 7 6 6 5 5 6 6 6 6 7 7 7 7 7 8 8 8 8 8 8 8 8 8 8 8
6 6 5 5 6 6 6 7 8 8 8 9 8 8 9 9 8 8 7 6 6 5 5 5 5 5 5 6 6 6 7 7 7 7 7 7 7 7 7 7 8 8 8 8
7 7 6 5 6 6 6 6 8 8 9 10 8 8 10 7 6 6 6 5 5 5 5 5 5 5 5 5 6 6 6 6 6 6 7 7 7 7 7 7 7 7 7 7
6 7 5 5 5 6 6 6 6 7 6 7 9 8 8 7 6 5 5 5 5 4 4 5 5 5 5 5 5 5 6 6 6 6 6 6 6 6 6 6 6 6 6 7
4 5 5 5 5 5 5 6 6 6 7 8 9 9 9 7 6 6 5 5 4 4 4 4 4 4 5 5 5 5 5 5 5 5 5 6 6 6 6 6 6 6 6 6
3 4 5 5 4 5 5 4 5 6 6 8 9 10 8 7 6 6 5 4 3 3 3 3 4 4 4 4 4 4 5 5 4 5 5 5 5 5 5 5 5 5 5 5
3 4 5 5 4 4 5 5 5 6 5 5 7 8 6 6 5 4 4 3 2 2 2 3 3 3 4 4 4 4 4 4 4 4 4 4 4 4 4 4 4 5 5 5
2 3 5 6 5 3 3 4 3 4 5 5 6 8 6 5 4 3 3 2 2 2 2 2 2 3 3 3 3 3 3 3 3 3 3 4 4 4 4 4 4 4 4 4
2 2 4 6 6 4 3 3 3 3 4 5 6 7 6 5 5 4 3 2 2 1 1 1 2 2 2 3 3 2 3 3 3 3 3 3 3 3 3 3 3 3 3 4
1 2 1 3 3 2 2 2 2 2 4 5 6 5 5 5 4 3 2 2 1 1 1 1 1 2 2 2 2 2 2 2 2 2 2 2 2 3 3 3 3 3 3 3
-0 1 0 1 2 2 2 2 2 2 3 3 4 4 4 4 3 2 2 1 1 1 1 1 1 1 1 2 1 2 2 2 2 2 2 2 2 2 2 2 2 2 2 2
-0 -0 1 4 2 1 3 2 2 2 2 2 3 4 4 3 2 1 1 0 0 0 0 1 1 1 1 1 1 1 1 1 1 1 1 1 1 1 1 1 1 1 1 1
-1 -0 1 2 2 3 5 1 2 2 2 1 2 2 2 2 1 0 0 -0 -0 -0 0 0 0 1 1 0 1 1 1 1 1 1 1 1 1 1 1 1 1 1 1 1
-1 -0 1 1 3 4 4 1 0 1 1 1 1 1 1 0 0 1 -0 -1 -1 -1 -0 -0 0 0 0 0 0 0 0 0 0 0 0 0 0 0 0 0 0 0 0 0
-2 -2 0 1 3 4 5 1 -1 0 2 1 0 0 0 -0 1 2 -1 -1 -1 -1 -1 -0 -0 -0 -0 -0 -0 -0 -0 -1 -1 -1 -1 -1 -1 -0 -0 -0 -0 -0 -0 -0
-1 -1 -0 1 2 3 2 -1 -1 2 3 1 -0 -1 -1 -1 0 -1 -1 -1 -1 -1 -1 -1 -1 -1 -1 -1 -1 -1 -1 -1 -1 -1 -1 -1 -1 -1 -1 -1 -1 -1 -1 -1
0 0 -1 0 1 3 -0 -1 1 2 0 -0 -1 -1 -1 -1 -2 -2 -2 -2 -2 -2 -2 -2 -1 -1 -1 -1 -1 -1 -2 -2 -2 -1 -1 -1 -1 -1 -1 -1 -1 -1 -1 -1
-0 0 1 1 2 1 -1 -1 -0 -1 -1 -1 -1 -1 -1 -2 -2 -2 -2 -2 -2 -2 -2 -2 -2 -2 -2 -2 -2 -2 -2 -2 -2 -2 -2 -2 -2 -2 -2 -2 -2 -2 -2 -2
-1 -3 -1 -2 -0 -1 -1 -1 -1 -1 -1 -1 -1 -2 -2 -2 -2 -2 -2 -3 -3 -3 -2 -2 -2 -2 -2 -2 -2 -2 -3 -3 -3 -2 -2 -2 -3 -2 -2 -2 -2 -2 -2 -2
-0 -2 -2 -2 -1 -1 -1 -1 -1 -1 -1 -2 -2 -2 -2 -2 -2 -2 -3 -3 -3 -3 -3 -3 -3 -3 -3 -3 -3 -3 -3 -3 -3 -3 -3 -3 -3 -3 -3 -3 -3 -3 -3 -3
-2 -2 -1 1 0 -1 -0 -0 -1 -1 -2 -2 -2 -2 -2 -2 -3 -3 -3 -3 -3 -3 -3 -3 -3 -3 -3 -3 -3 -3 -3 -3 -3 -3 -3 -3 -3 -3 -3 -3 -3 -3 -3 -3
Wind_Speed
1 2 2 3 4 4 4 6 8 7 6 6 10 12 12 10 9 9 8 7 6 6 6 5 5 5 4 3 3 3 3 3 2 2 3 3 3 3 2 2 3 5 5 5
2 2 4 3 3 4 5 6 8 6 4 6 9 13 12 10 9 8 8 7 7 7 6 6 5 5 5 4 4 4 4 4 4 3 3 3 3 2 2 2 2 3 4 5
3 1 1 3 3 4 6 8 8 7 7 6 8 9 9 7 6 6 6 7 7 7 7 6 5 5 5 4 5 5 5 5 5 4 2 2 1 1 2 2 2 3 4 4
2 2 3 3 4 5 6 6 7 8 7 5 4 7 7 6 6 6 6 7 7 6 6 6 5 5 5 5 4 5 5 4 4 4 3 4 3 3 3 3 3 2 3 4
2 1 2 3 4 4 4 5 6 6 7 7 6 6 7 5 7 7 6 6 6 5 5 5 5 5 5 5 4 4 5 4 4 4 5 5 4 3 2 2 3 3 2 3
2 2 2 2 3 3 4 3 4 4 4 6 7 6 6 4 6 7 5 5 5 4 4 5 5 4 4 4 4 4 5 5 4 5 5 5 5 4 4 4 4 3 3 3
1 1 2 2 2 1 2 2 2 2 3 5 2 5 7 5 5 6 5 4 3 3 3 3 4 4 4 4 4 3 4 4 4 5 5 5 6 6 6 6 5 4 3 3
2 3 1 1 2 3 3 3 3 3 5 5 4 7 5 3 5 4 3 3 2 2 2 3 4 4 3 4 4 3 3 3 4 4 4 4 5 5 5 6 5 5 4 4
2 2 1 1 2 3 2 3 3 3 4 5 5 6 7 5 6 5 4 4 4 3 3 4 3 3 3 4 3 3 3 3 3 3 3 3 4 4 5 5 5 4 4 4
2 4 3 2 1 1 3 2 2 3 3 6 7 7 6 5 6 5 5 5 5 5 4 4 4 4 4 3 3 3 2 2 2 3 3 3 3 3 3 4 4 4 4 4
2 3 2 1 3 3 2 2 3 2 3 4 6 5 2 4 5 6 6 5 6 5 5 5 5 5 4 3 2 2 2 2 2 2 2 2 2 2 3 3 3 4 4 4
1 2 4 4 2 3 4 4 4 4 4 4 5 6 2 4 5 6 6 6 6 6 5 5 5 4 4 3 2 2 2 2 2 2 2 2 2 2 2 2 3 3 4 4
2 2 3 2 2 1 3 4 4 3 3 5 6 6 1 5 6 6 7 7 7 6 6 6 5 5 4 3 3 2 2 2 2 1 1 2 1 1 2 2 3 3 4 4
2 3 5 7 5 3 5 5 5 5 5 7 10 12 11 9 10 10 9 9 7 7 6 6 5 5 4 3 3 3 2 2 2 1 1 1 1 1 1 2 2 2 3 4
1 3 5 8 8 6 7 8 8 10 10 9 11 13 14 13 12 11 10 9 8 7 6 5 5 4 3 3 3 2 2 1 1 1 1 1 1 1 1 1 1 1 2 2
0 3 3 6 6 6 8 10 10 11 11 13 15 15 13 12 10 9 8 8 8 7 6 6 5 4 3 3 3 2 2 2 1 1 1 1 1 1 1 1 1 1 1 1
2 2 3 5 5 5 8 8 9 7 8 8 11 11 10 10 10 10 9 8 8 7 6 5 4 3 3 3 2 2 2 1 1 1 2 2 1 1 1 1 1 1 1 1
3 3 2 4 3 6 3 1 4 8 9 10 10 11 10 10 10 9 8 8 8 7 5 5 4 3 3 2 1 1 1 1 1 1 2 2 1 1 1 1 1 1 1 1
4 4 3 2 5 8 5 2 3 5 7 7 10 12 10 9 8 7 5 6 6 6 5 4 3 3 2 2 1 1 1 1 1 1 2 2 2 1 1 1 1 1 1 1
1 3 3 3 5 6 2 1 1 2 5 3 5 8 7 5 6 6 5 6 5 5 5 4 3 2 2 2 1 1 1 1 1 2 2 2 1 1 1 1 1 1 1 1
2 3 5 6 7 7 2 1 2 3 4 2 4 5 4 4 6 6 7 6 5 5 5 3 2 2 2 1 1 1 1 2 2 2 2 2 1 1 1 1 0 0 0 0
6 5 6 5 6 7 3 5 5 4 4 3 4 4 5 6 6 6 6 5 5 5 5 3 2 2 2 2 1 1 2 2 2 2 1 2 2 1 1 0 0 0 0 1
7 6 4 7 7 3 5 6 5 4 5 5 5 5 5 6 6 6 5 5 5 4 4 3 2 2 2 2 1 1 2 2 1 1 1 2 2 2 1 1 0 0 1 1
5 4 5 7 10 9 9 9 8 7 8 7 7 6 5 6 6 6 5 5 4 4 3 3 2 2 2 3 2 2 2 1 0 0 1 1 1 1 1 1 1 1 1 1
5 5 5 8 9 8 8 10 10 8 8 7 6 6 6 5 5 5 4 4 4 3 3 2 2 2 3 3 3 2 2 1 1 1 1 1 1 1 1 1 1 1 2 2
6 8 7 8 6 6 6 6 7 8 8 7 6 6 5 4 5 4 4 3 3 3 3 2 2 3 3 3 3 2 2 1 1 1 1 1 1 1 1 1 1 1 1 2
Wind_Direction
63 177 207 224 231 247 253 254 266 273 284 277 265 272 274 269 258 254 254 253 254 258 264 258 249 243 244 238 231 230 218 207 189 194 192 192 205 205 201 202 202 192 190 191
169 234 261 257 240 236 242 252 269 281 289 281 275 276 274 266 257 256 256 254 253 257 260 257 251 249 243 235 231 229 224 214 201 207 211 211 209 215 207 199 202 199 201 195
215 278 289 227 233 242 251 253 265 279 298 273 278 274 256 251 250 258 260 261 262 256 257 257 258 259 255 246 242 236 228 222 212 207 194 171 175 202 215 216 217 213 210 204
253 266 246 253 262 255 260 268 270 273 279 279 274 281 267 259 261 262 256 254 257 257 255 254 255 255 254 253 250 244 228 221 215 202 189 184 201 215 238 236 228 220 215 210
232 253 251 252 273 259 258 287 275 265 263 275 258 259 271 262 265 266 256 251 252 253 250 248 249 249 253 252 246 243 221 214 215 205 197 199 212 222 224 219 216 215 219 215
267 269 278 279 297 264 261 280 269 249 247 259 249 243 271 260 278 285 277 258 248 244 252 255 254 252 260 251 239 234 219 216 216 210 206 207 210 211 210 215 215 212 213 216
304 248 257 270 282 249 256 265 279 251 239 252 241 245 258 281 295 291 282 268 265 244 246 257 259 259 251 244 243 239 227 225 227 219 216 216 215 213 212 215 216 215 214 222
288 269 235 259 250 259 249 249 257 270 272 287 270 248 263 321 321 311 300 293 299 288 283 280 277 271 254 251 248 245 242 238 234 224 225 223 227 224 221 220 220 220 221 223
261 269 355 298 289 250 232 229 278 266 277 275 264 273 283 310 316 316 307 310 315 306 301 297 301 306 286 267 265 256 250 242 235 232 228 225 228 234 235 232 227 224 223 217
256 268 283 306 250 299 274 236 230 240 270 273 275 273 284 296 302 305 305 306 307 307 307 312 310 304 293 280 274 266 259 246 237 232 225 223 228 236 238 231 229 226 223 215
234 245 274 246 229 246 204 205 232 237 266 270 282 280 306 290 311 310 311 313 313 316 310 305 302 296 297 298 289 278 270 265 243 238 236 236 237 241 235 231 231 226 221 214
215 244 260 253 269 290 249 235 218 241 252 252 273 282 3 314 319 316 317 317 314 316 314 315 311 308 311 308 302 296 281 278 266 256 246 240 229 224 232 236 236 227 219 217
181 209 280 257 222 222 247 245 231 240 252 248 256 272 6 330 322 316 313 311 311 316 319 319 318 323 322 323 312 307 290 305 305 276 254 249 228 224 234 240 235 226 215 215
202 219 240 264 291 269 262 255 229 216 236 253 251 271 289 301 306 307 308 307 309 313 316 314 313 318 323 327 321 315 320 340 323 295 275 274 272 258 258 251 238 227 214 209
224 245 249 268 277 269 266 263 228 221 234 247 268 274 284 298 304 306 305 307 310 311 312 311 309 310 320 333 332 332 335 340 332 308 313 326 324 326 339 312 274 253 226 217
256 245 266 274 269 273 275 269 248 241 246 253 267 276 283 295 301 302 303 305 304 303 304 305 305 309 321 329 330 337 342 340 343 337 346 346 348 356 357 349 318 280 246 220
189 198 254 273 302 290 268 253 232 237 236 239 252 269 293 300 303 302 304 302 299 300 300 301 301 309 314 314 320 326 327 345 10 356 355 352 348 352 341 338 298 267 259 223
188 196 243 285 300 257 270 129 231 242 252 241 257 278 289 293 302 300 302 304 303 302 304 308 312 314 314 315 327 331 339 21 24 1 359 356 346 327 324 328 296 283 289 242
214 208 222 247 270 274 274 227 214 235 267 247 255 273 286 304 300 293 307 310 303 305 311 314 316 318 328 337 345 3 23 40 28 3 354 344 334 332 326 308 299 302 276 262
141 200 218 225 254 264 291 96 282 234 265 256 256 268 284 306 297 307 328 315 312 316 322 325 332 330 337 348 6 41 35 26 353 341 338 331 319 293 280 283 298 285 253 237
180 198 218 232 248 265 275 150 177 228 297 310 257 263 263 266 279 305 312 313 322 324 327 334 344 339 337 350 17 27 11 348 333 339 344 335 317 289 278 283 310 275 229 196
198 197 207 212 234 258 156 153 207 267 323 285 274 267 267 278 295 302 306 312 323 329 330 333 336 340 350 9 44 360 327 332 341 348 342 331 325 321 309 321 327 273 179 197
217 214 214 212 234 293 192 223 261 292 280 279 279 277 275 279 286 296 303 307 314 320 325 332 332 342 349 356 25 340 324 334 344 350 336 333 331 327 322 290 266 261 235 225
226 221 235 254 263 267 258 260 267 268 270 275 277 278 271 273 279 286 293 300 306 314 324 332 337 339 335 340 338 324 328 322 297 313 313 320 317 321 331 308 266 246 242 238
231 195 228 254 270 282 262 256 262 267 270 274 275 272 267 271 278 279 285 290 295 304 313 319 314 311 316 328 321 321 325 319 297 297 299 301 298 310 321 316 293 273 265 259
213 211 222 248 249 243 271 282 273 263 262 262 268 278 273 263 269 277 282 288 289 295 302 305 302 301 308 316 314 320 311 284 279 300 301 290 291 302 302 307 343 7 288 298
Height
1509 1508 1506 1506 1507 1505 1504 1502 1500 1499 1501 1501 1496 1492 1490 1491 1491 1490 1489 1488 1488 1488 1488 1489 1489 1489 1489 1490 1491 1492 1493 1494 1495 1497 1498 1499 1501 1502 1504 1505 1506 1508 1508 1509
1508 1507 1508 1508 1508 1507 1505 1503 1500 1498 1500 1499 1493 1489 1486 1486 1486 1485 1485 1485 1485 1485 1485 1485 1485 1485 1486 1486 1488 1489 1490 1491 1492 1494 1495 1496 1497 1499 1500 1502 1503 1504 1505 1506
1506 1508 1509 1508 1507 1505 1503 1501 1499 1499 1499 1497 1494 1482 1479 1479 1481 1481 1482 1482 1481 1481 1481 1480 1481 1481 1482 1483 1484 1485 1486 1488 1489 1490 1492 1493 1494 1495 1497 1498 1499 1500 1501 1502
1508 1510 1509 1507 1506 1504 1501 1501 1501 1500 1498 1491 1492 1480 1471 1473 1475 1477 1478 1478 1478 1477 1477 1477 1477 1477 1478 1479 1480 1481 1483 1484 1485 1487 1488 1488 1489 1490 1492 1494 1495 1497 1498 1499
1508 1509 1508 1505 1505 1505 1503 1503 1501 1499 1497 1495 1490 1488 1468 1471 1471 1471 1473 1474 1474 1474 1473 1473 1473 1474 1475 1476 1477 1478 1480 1481 1482 1483 1484 1485 1486 1487 1489 1490 1492 1493 1494 1495
1510 1511 1510 1507 1506 1505 1505 1503 1500 1497 1495 1493 1484 1484 1468 1467 1469 1468 1469 1470 1470 1470 1470 1470 1470 1471 1471 1472 1473 1474 1476 1477 1478 1479 1480 1481 1482 1484 1485 1486 1488 1489 1490 1491
1507 1508 1509 1509 1505 1504 1504 1500 1493 1488 1486 1479 1482 1481 1470 1468 1470 1469 1468 1467 1467 1467 1468 1468 1468 1468 1468 1468 1469 1470 1471 1472 1474 1475 1476 1477 1478 1480 1481 1482 1484 1484 1485 1487
1504 1501 1506 1507 1505 1504 1503 1501 1496 1488 1478 1472 1480 1473 1465 1470 1470 1469 1468 1466 1465 1465 1465 1465 1465 1465 1464 1465 1465 1466 1467 1468 1470 1471 1472 1474 1475 1477 1477 1479 1480 1480 1482 1483
1504 1501 1507 1507 1507 1505 1502 1500 1502 1497 1494 1488 1472 1470 1467 1468 1468 1467 1467 1465 1464 1464 1464 1463 1463 1462 1462 1463 1462 1463 1464 1465 1466 1467 1468 1470 1472 1473 1474 1475 1476 1477 1479 1480
1511 1508 1506 1507 1507 1506 1504 1502 1501 1497 1488 1475 1465 1466 1463 1465 1467 1467 1466 1465 1465 1463 1462 1461 1461 1461 1460 1460 1460 1460 1461 1462 1463 1464 1464 1466 1468 1469 1470 1471 1472 1473 1475 1476
1513 1511 1506 1505 1504 1502 1504 1504 1501 1496 1493 1481 1468 1462 1465 1466 1468 1468 1466 1466 1464 1462 1461 1460 1459 1459 1458 1457 1457 1457 1458 1459 1459 1460 1461 1462 1464 1465 1466 1467 1468 1469 1471 1472
1513 1511 1504 1503 1504 1505 1502 1500 1499 1494 1492 1490 1478 1469 1470 1469 1469 1469 1467 1466 1464 1462 1460 1458 1457 1456 1455 1455 1455 1455 1455 1455 1456 1457 1458 1459 1460 1461 1462 1463 1464 1465 1466 1467
1513 1512 1501 1494 1501 1506 1504 1500 1500 1499 1494 1487 1479 1469 1470 1471 1470 1469 1467 1465 1463 1461 1458 1456 1455 1454 1453 1452 1453 1453 1453 1453 1453 1454 1455 1456 1456 1457 1458 1459 1460 1461 1462 1463
1512 1510 1504 1492 1490 1498 1500 1499 1499 1498 1491 1483 1476 1468 1467 1469 1469 1468 1466 1464 1462 1459 1457 1455 1454 1452 1451 1451 1451 1451 1450 1450 1451 1452 1452 1452 1453 1454 1455 1456 1457 1458 1458 1459
1511 1508 1508 1503 1501 1501 1498 1495 1495 1495 1487 1483 1472 1471 1468 1468 1468 1467 1465 1463 1460 1457 1455 1453 1452 1451 1450 1450 1449 1449 1448 1449 1449 1450 1449 1450 1451 1452 1453 1453 1454 1455 1455 1455
1512 1509 1509 1503 1500 1499 1496 1492 1491 1490 1488 1483 1477 1472 1469 1469 1467 1465 1463 1461 1457 1455 1453 1452 1451 1450 1449 1448 1448 1447 1447 1447 1447 1448 1448 1448 1449 1449 1450 1450 1451 1452 1452 1452
1510 1511 1505 1492 1499 1497 1485 1482 1485 1484 1482 1480 1474 1468 1467 1466 1465 1463 1461 1459 1456 1454 1452 1450 1449 1448 1447 1447 1446 1445 1445 1445 1446 1446 1446 1446 1447 1447 1447 1448 1448 1449 1449 1449
1510 1509 1505 1497 1497 1485 1475 1481 1480 1479 1476 1476 1472 1469 1468 1467 1464 1461 1459 1457 1454 1452 1450 1449 1447 1447 1446 1445 1444 1444 1444 1444 1445 1445 1444 1445 1445 1445 1445 1446 1446 1446 1446 1447
1507 1506 1503 1499 1488 1476 1475 1479 1480 1479 1473 1471 1470 1468 1467 1465 1461 1457 1456 1455 1453 1451 1449 1447 1445 1445 1444 1443 1443 1443 1443 1443 1443 1443 1443 1443 1444 1443 1443 1444 1444 1444 1444 1444
1507 1507 1503 1499 1488 1473 1469 1478 1478 1479 1469 1467 1467 1465 1465 1464 1460 1456 1455 1453 1451 1449 1447 1445 1444 1443 1442 1442 1442 1441 1441 1441 1441 1441 1441 1442 1442 1442 1442 1442 1442 1442 1442 1442
1504 1503 1500 1495 1486 1473 1475 1477 1478 1473 1464 1465 1464 1464 1463 1463 1460 1458 1454 1452 1450 1447 1446 1444 1443 1442 1441 1441 1441 1440 1440 1440 1440 1440 1440 1440 1440 1440 1440 1440 1440 1440 1440 1440
1492 1492 1494 1491 1485 1474 1474 1476 1474 1467 1465 1464 1462 1461 1461 1459 1457 1454 1452 1450 1448 1446 1445 1443 1442 1441 1441 1440 1440 1439 1439 1439 1439 1439 1439 1439 1439 1439 1438 1438 1438 1438 1438 1438
1488 1484 1481 1481 1473 1470 1470 1469 1467 1466 1464 1462 1461 1459 1458 1456 1454 1452 1451 1449 1447 1446 1444 1443 1441 1440 1440 1439 1439 1438 1438 1438 1438 1437 1437 1437 1437 1437 1437 1437 1437 1437 1437 1437
1483 1484 1482 1478 1469 1467 1467 1465 1464 1463 1462 1460 1458 1457 1455 1453 1452 1450 1449 1447 1445 1444 1442 1441 1440 1439 1439 1438 1437 1437 1437 1437 1436 1436 1436 1435 1435 1435 1435 1435 1435 1435 1435 1435
1476 1479 1477 1473 1466 1464 1461 1460 1459 1459 1458 1456 1455 1454 1452 1451 1449 1448 1447 1445 1444 1443 1441 1440 1439 1438 1437 1436 1436 1436 1435 1435 1434 1434 1434 1434 1434 1433 1433 1433 1434 1434 1434 1434
1471 1471 1469 1461 1459 1460 1457 1456 1456 1455 1454 1453 1452 1450 1450 1449 1447 1446 1445 1444 1443 1441 1440 1439 1438 1437 1436 1435 1435 1434 1434 1434 1433 1432 1432 1432 1431 1431 1431 1431 1431 1432 1432 1432